Weather History for KCNO - April, 2013

Change the Weather History Date:

Friday, April 19, 2013

  Actual Average Record
Temperature  
Mean Temperature 63 °F -  
Max Temperature 87 °F 72 °F 97 °F (2009)
Min Temperature 39 °F 43 °F 37 °F (2003)
Degree Days  
Heating Degree Days 2    
Growing Degree Days 13 (Base 50)    
Moisture  
Dew Point 22 °F    
Average Humidity 30    
Maximum Humidity 70    
Minimum Humidity 6    
Precipitation  
Precipitation 0.00 in - - ()
Sea Level Pressure  
Sea Level Pressure 30.08 in    
Wind  
Wind Speed 4 mph (WNW)    
Max Wind Speed 17 mph    
Max Gust Speed 16 mph    
Visibility 9 miles    
Events      
Averages and records for this station are not official NWS values.
T = Trace of Precipitation, MM = Missing Value Source: NWS Daily Summary

Daily Weather History Graph

Daily Weather History Graph

Search for Another Location

Airport or City:

Trip Planner

Search our weather history database for the weather conditions in past years. The results will help you decide how hot, cold, wet, or windy it might be!

Date:

Astronomy

Apr. 19, 2013 Rise Set
Actual Time 6:14 AM PDT 7:25 PM PDT
Civil Twilight 5:48 AM PDT 7:51 PM PDT
Nautical Twilight 5:17 AM PDT 8:22 PM PDT
Astronomical Twilight 4:45 AM PDT 8:54 PM PDT
Moon 1:30 PM PDT (4/19) 2:15 AM PDT (4/19)
Length of Visible Light 14h 02m
Length of Day
13h 10m
Waxing Gibbous, 62% of the Moon is Illuminated
Apr 19
Waxing Gibbous
Apr 25
Full
May 2
Last Quarter
May 9
New
May 17
First Quarter

Hourly Weather History & Observations

Time (PDT) Temp. Windchill Dew Point Humidity Pressure Visibility Wind Dir Wind Speed Gust Speed Precip Events Conditions
12:53 AM 44.1 °F 40.8 °F 30.0 °F 58% 30.17 in 7.0 mi North 5.8 mph - N/A   Clear
1:53 AM 46.9 °F - 30.9 °F 54% 30.16 in 9.0 mi Calm Calm - N/A   Clear
2:53 AM 43.0 °F - 28.9 °F 58% 30.15 in 8.0 mi Calm Calm - N/A   Clear
3:53 AM 44.1 °F - 30.0 °F 58% 30.15 in 8.0 mi Calm Calm - N/A   Clear
4:53 AM 42.1 °F - 32.0 °F 67% 30.15 in 8.0 mi Calm Calm - N/A   Clear
5:53 AM 39.0 °F 36.8 °F 30.0 °F 70% 30.17 in 5.0 mi Variable 3.5 mph - N/A   Haze
6:53 AM 41.0 °F 38.0 °F 32.0 °F 70% 30.17 in 10.0 mi North 4.6 mph - N/A   Clear
7:53 AM 55.0 °F - 28.0 °F 35% 30.18 in 10.0 mi Calm Calm - N/A   Clear
8:53 AM 61.0 °F - 30.9 °F 32% 30.18 in 10.0 mi Calm Calm - N/A   Clear
9:53 AM 66.9 °F - 19.0 °F 16% 30.18 in 10.0 mi Calm Calm - N/A   Clear
10:53 AM 75.9 °F - 9.0 °F 8% 30.16 in 10.0 mi Calm Calm - N/A   Clear
11:53 AM 81.0 °F - 7.0 °F 6% 30.13 in 10.0 mi Variable 3.5 mph - N/A   Clear
12:53 PM 82.0 °F - 7.0 °F 6% 30.09 in 10.0 mi SW 5.8 mph - N/A   Clear
1:53 PM 84.9 °F - 9.0 °F 6% 30.06 in 10.0 mi Variable 3.5 mph - N/A   Clear
2:53 PM 86.0 °F - 10.9 °F 6% 30.02 in 10.0 mi NW 8.1 mph - N/A   Partly Cloudy
3:53 PM 87.1 °F - 10.0 °F 6% 29.99 in 10.0 mi West 6.9 mph 16.1 mph N/A   Partly Cloudy
4:53 PM 84.9 °F - 16.0 °F 8% 29.97 in 10.0 mi West 16.1 mph - N/A   Partly Cloudy
5:53 PM 81.0 °F - 15.1 °F 8% 29.98 in 10.0 mi West 17.3 mph - N/A   Partly Cloudy
6:53 PM 75.0 °F - 15.1 °F 10% 29.98 in 10.0 mi WSW 10.4 mph - N/A   Clear
7:53 PM 69.1 °F - 21.9 °F 17% 29.98 in 10.0 mi WSW 10.4 mph - N/A   Clear
8:53 PM 63.0 °F - 25.0 °F 24% 29.99 in 10.0 mi WSW 5.8 mph - N/A   Clear
9:53 PM 59.0 °F - 28.0 °F 31% 30.00 in 10.0 mi NNW 4.6 mph - N/A   Clear
10:53 PM 61.0 °F - 27.0 °F 27% 29.99 in 10.0 mi NNW 3.5 mph - N/A   Clear
11:53 PM 55.9 °F - 33.1 °F 42% 30.00 in 8.0 mi Calm Calm - N/A   Clear